This is the latest recevied weather packets stored in our database for station/object K6TTR. If no packets are shown the sender has not sent any weather packets the latest 10 day(s).
| Time | Temp. | Humidity | Pressure | Rain* | Wind** | Luminosity | Snow |
|---|---|---|---|---|---|---|---|
| 1777672124 | 21.11° C | 26% | 1018 hPa | 0 mm | - | 853 W/m² | - |
| 1777671830 | 21.11° C | 25% | 1017.3 hPa | 0 mm | - | 738 W/m² | - |
| 1777671515 | 21.67° C | 27% | 1017.4 hPa | 0 mm | - | 374 W/m² | - |
| 1777671219 | 21.67° C | 27% | 1017.4 hPa | 0 mm | - | 647 W/m² | - |
| 1777670924 | 21.67° C | 26% | 1017.4 hPa | 0 mm | - | 812 W/m² | - |
| 1777670630 | 21.67° C | 25% | 1017.5 hPa | 0 mm | - | 853 W/m² | - |
| 1777670316 | 21.11° C | 27% | 1017.5 hPa | 0 mm | - | 870 W/m² | - |
| 1777670022 | 21.11° C | 26% | 1017.6 hPa | 0 mm | - | 888 W/m² | - |
| 1777669727 | 21.11° C | 27% | 1017.6 hPa | 0 mm | - | 867 W/m² | - |
| 1777669412 | 21.11° C | 27% | 1017.8 hPa | 0 mm | - | 587 W/m² | - |
| 1777669119 | 21.11° C | 28% | 1017.7 hPa | 0 mm | - | 958 W/m² | - |
| 1777668824 | 21.11° C | 28% | 1017.9 hPa | 0 mm | - | 919 W/m² | - |
| 1777668529 | 21.11° C | 26% | 1017.8 hPa | 0 mm | - | 861 W/m² | - |
| 1777668215 | 21.11° C | 27% | 1017.8 hPa | 0 mm | - | 884 W/m² | - |
| 1777667920 | 21.11° C | 26% | 1018 hPa | 0 mm | - | 979 W/m² | - |
| 1777667626 | 21.11° C | 27% | 1018.1 hPa | 0 mm | - | 1005 W/m² | - |
| 1777667330 | 21.11° C | 26% | 1018.2 hPa | 0 mm | - | 907 W/m² | - |
| 1777667017 | 20.56° C | 26% | 1018.1 hPa | 0 mm | - | 960 W/m² | - |
| 1777666722 | 20.56° C | 26% | 1018.2 hPa | 0 mm | - | 944 W/m² | - |
| 1777666427 | 20.56° C | 27% | 1018.1 hPa | 0 mm | - | 886 W/m² | - |
| 1777666130 | 20° C | 27% | 1018.3 hPa | 0 mm | - | 819 W/m² | - |
| 1777665817 | 20° C | 27% | 1018.5 hPa | 0 mm | - | 953 W/m² | - |
| 1777665523 | 20° C | 27% | 1018.5 hPa | 0 mm | - | 824 W/m² | - |
| 1777665213 | 20° C | 27% | 1018.5 hPa | 0 mm | - | 949 W/m² | - |
| 1777664921 | 20° C | 27% | 1018.6 hPa | 0 mm | - | 944 W/m² | - |
* Rain latest hour (hover to see other rain measurements)
** Current wind speed in m/s (hover to see current wind gust speed)